Springfield, MO

7:52 AM CST on December 12, 2019 (GMT -0600)
Springfield-Branson Regional

Weather History for KSGF - October, 2019

Change the Weather History Date:

Wednesday, October 23, 2019

  Actual Average Record
Temperature  
Mean Temperature 58 °F 56 °F  
Max Temperature 73 °F 67 °F 88 °F (1939)
Min Temperature 42 °F 45 °F 24 °F (1937)
Degree Days  
Heating Degree Days 7 10  
Month to date heating degree days 172 163  
Since 1 July heating degree days 172 218  
Cooling Degree Days 0 0  
Month to date cooling degree days 37 27  
Year to date cooling degree days 1687 1386  
Growing Degree Days 8 (Base 50)    
Moisture  
Dew Point 37 °F    
Average Humidity 52    
Maximum Humidity 76    
Minimum Humidity 27    
Precipitation  
Precipitation 0.00 in 0.11 in 1.29 in (1943)
Month to date precipitation 5.35 2.66  
Year to date precipitation 47.04 37.38  
Snow  
Snow 0.00 in - - ()
Month to date snowfall 0.0  
Since 1 July snowfall 0.0  
Since 1 September snowfall 0.0  
Snow Depth 0.00 in    
Sea Level Pressure  
Sea Level Pressure 30.00 in    
Wind  
Wind Speed 13 mph (South)    
Max Wind Speed 31 mph    
Max Gust Speed 43 mph    
Visibility 10 miles    
Events      
T = Trace of Precipitation, MM = Missing Value Source: NWS Daily Summary

Daily Weather History Graph

Daily Weather History Graph

Search for Another Location

Airport or City:

Astronomy

Oct. 23, 2019 Rise Set
Actual Time 7:28 AM CDT 6:26 PM CDT
Civil Twilight 7:02 AM CDT 6:52 PM CDT
Nautical Twilight 6:31 AM CDT 7:23 PM CDT
Astronomical Twilight 6:01 AM CDT 7:53 PM CDT
Moon 1:57 AM CDT (10/23) 4:08 PM CDT (10/23)
Length of Visible Light 11h 50m
Length of Day
10h 57m
Waning Crescent, 26% of the Moon is Illuminated
Oct 23
Waning Crescent
Oct 27
New
Nov 4
First Quarter
Nov 12
Full
Nov 19
Last Quarter

Hourly Weather History & Observations

Time (CDT) Temp. Windchill Dew Point Humidity Pressure Visibility Wind Dir Wind Speed Gust Speed Precip Events Conditions
12:52 AM 43.0 °F 40.3 °F 34.0 °F 71% 30.02 in 10.0 mi South 4.6 mph - N/A   Clear
1:52 AM 42.1 °F 37.7 °F 34.0 °F 73% 30.01 in 10.0 mi South 6.9 mph - N/A   Clear
2:52 AM 43.0 °F 37.7 °F 35.1 °F 74% 30.01 in 10.0 mi South 9.2 mph - N/A   Clear
3:52 AM 45.0 °F 40.6 °F 37.0 °F 74% 30.00 in 10.0 mi South 8.1 mph - N/A   Clear
4:52 AM 46.0 °F 40.6 °F 37.0 °F 71% 30.00 in 10.0 mi South 11.5 mph - N/A   Clear
5:52 AM 46.0 °F 40.2 °F 37.0 °F 71% 29.99 in 10.0 mi South 12.7 mph - N/A   Clear
6:52 AM 46.0 °F 40.6 °F 37.0 °F 71% 30.01 in 10.0 mi South 11.5 mph - N/A   Clear
7:52 AM 46.9 °F - 36.0 °F 66% 30.01 in 10.0 mi South 11.5 mph - N/A   Clear
8:52 AM 51.1 °F - 37.9 °F 61% 30.03 in 10.0 mi South 13.8 mph - N/A   Clear
9:52 AM 55.9 °F - 39.0 °F 53% 30.03 in 10.0 mi South 13.8 mph - N/A   Clear
10:52 AM 61.0 °F - 39.0 °F 44% 30.02 in 10.0 mi SSW 13.8 mph 27.6 mph N/A   Clear
11:52 AM 68.0 °F - 39.0 °F 35% 30.00 in 10.0 mi SSW 15.0 mph 32.2 mph N/A   Clear
12:52 PM 71.1 °F - 37.9 °F 30% 29.97 in 10.0 mi SSW 24.2 mph 36.8 mph N/A   Clear
1:52 PM 72.0 °F - 37.0 °F 28% 29.94 in 10.0 mi SW 25.3 mph 36.8 mph N/A   Clear
2:52 PM 72.0 °F - 36.0 °F 27% 29.93 in 10.0 mi SW 20.7 mph 34.5 mph N/A   Clear
4:52 PM 70.0 °F - 37.0 °F 30% 29.94 in 10.0 mi SW 21.9 mph 29.9 mph N/A   Clear
5:52 PM 66.9 °F - 37.9 °F 34% 29.96 in 10.0 mi SSW 10.4 mph - N/A   Clear
6:52 PM 61.0 °F - 37.9 °F 42% 29.98 in 10.0 mi South 10.4 mph - N/A   Clear
7:52 PM 62.1 °F - 37.9 °F 41% 30.02 in 10.0 mi South 9.2 mph - N/A   Overcast
8:52 PM 57.0 °F - 37.9 °F 49% 30.03 in 10.0 mi South 8.1 mph - N/A   Clear
9:52 PM 57.9 °F - 39.0 °F 49% 30.04 in 10.0 mi SSE 10.4 mph - N/A   Mostly Cloudy
10:52 PM 57.9 °F - 39.9 °F 51% 30.08 in 10.0 mi NNW 5.8 mph - N/A   Overcast
11:52 PM 55.0 °F - 42.1 °F 62% 30.09 in 10.0 mi SSE 4.6 mph - N/A   Mostly Cloudy